Time,TemperatureF,DewpointF,PressureIn,WindDirection,WindDirectionDegrees,WindSpeedMPH,WindSpeedGustMPH,Humidity,HourlyPrecipIn,Conditions,Clouds,dailyrainin,SoftwareType,DateUTC
2013-04-27 00:03:00,33.0,25.0,30.42,ENE,67,0.0,0.0,71,0.00,,,0.06,,2013-04-27 04:03:00,
2013-04-27 00:13:00,33.0,25.0,30.42,ENE,67,0.0,0.0,71,0.00,,,0.06,,2013-04-27 04:13:00,
2013-04-27 00:23:00,33.0,25.0,30.42,ENE,67,0.0,0.0,71,0.00,,,0.06,,2013-04-27 04:23:00,
2013-04-27 00:33:00,33.0,24.0,30.42,ESE,112,0.0,0.0,70,0.00,,,0.06,,2013-04-27 04:33:00,
2013-04-27 00:43:00,33.0,24.0,30.42,ESE,112,0.0,0.0,70,0.00,,,0.06,,2013-04-27 04:43:00,
2013-04-27 00:53:00,33.0,25.0,30.42,ESE,112,0.0,0.0,71,0.00,,,0.06,,2013-04-27 04:53:00,
2013-04-27 01:02:00,33.0,25.0,30.42,ENE,67,0.0,0.0,71,0.00,,,0.06,,2013-04-27 05:02:00,
2013-04-27 01:12:00,33.0,25.0,30.42,ENE,67,0.0,0.0,71,0.00,,,0.06,,2013-04-27 05:12:00,
2013-04-27 01:22:00,33.0,25.0,30.43,ENE,67,0.0,3.0,72,0.00,,,0.06,,2013-04-27 05:22:00,
2013-04-27 01:32:00,33.0,25.0,30.42,ENE,67,0.0,0.0,72,0.00,,,0.04,,2013-04-27 05:32:00,
2013-04-27 01:42:00,33.0,25.0,30.42,ENE,67,0.0,0.0,72,0.00,,,0.04,,2013-04-27 05:42:00,
2013-04-27 01:52:00,33.0,25.0,30.42,ENE,67,0.0,0.0,71,0.00,,,0.02,,2013-04-27 05:52:00,
2013-04-27 02:02:00,33.0,25.0,30.42,ENE,67,0.0,0.0,71,0.00,,,0.02,,2013-04-27 06:02:00,
2013-04-27 02:12:00,33.0,25.0,30.42,ENE,67,0.0,0.0,71,0.00,,,0.02,,2013-04-27 06:12:00,
2013-04-27 02:22:00,33.0,25.0,30.41,ENE,67,0.0,0.0,71,0.00,,,0.02,,2013-04-27 06:22:00,
2013-04-27 02:32:00,33.0,25.0,30.40,ENE,67,0.0,0.0,71,0.00,,,0.02,,2013-04-27 06:32:00,
2013-04-27 02:42:00,33.0,25.0,30.40,ENE,67,0.0,0.0,71,0.00,,,0.02,,2013-04-27 06:42:00,
2013-04-27 02:52:00,33.0,25.0,30.40,ENE,67,0.0,0.0,71,0.00,,,0.02,,2013-04-27 06:52:00,
2013-04-27 03:01:00,32.0,24.0,30.40,ENE,67,0.0,0.0,71,0.00,,,0.02,,2013-04-27 07:01:00,
2013-04-27 03:11:00,32.0,24.0,30.40,ENE,67,0.0,0.0,71,0.00,,,0.02,,2013-04-27 07:11:00,
2013-04-27 03:21:00,32.0,24.0,30.40,SE,135,0.0,1.0,71,0.00,,,0.02,,2013-04-27 07:21:00,
2013-04-27 03:32:00,33.0,25.0,30.40,SE,135,0.0,1.0,71,0.00,,,0.02,,2013-04-27 07:32:00,
2013-04-27 03:42:00,33.0,25.0,30.40,SE,135,0.0,1.0,71,0.00,,,0.02,,2013-04-27 07:42:00,
2013-04-27 03:52:00,33.0,25.0,30.40,SE,135,0.0,0.0,71,0.00,,,0.02,,2013-04-27 07:52:00,
2013-04-27 04:01:00,33.0,24.0,30.40,SE,135,0.0,0.0,70,0.00,,,0.02,,2013-04-27 08:01:00,
2013-04-27 04:11:00,33.0,24.0,30.40,SE,135,0.0,0.0,70,0.00,,,0.02,,2013-04-27 08:11:00,
2013-04-27 04:21:00,33.0,25.0,30.40,SSE,162,2.0,3.0,71,0.00,,,0.02,,2013-04-27 08:21:00,
2013-04-27 04:33:00,33.0,25.0,30.39,SE,135,0.0,4.0,71,0.00,,,0.02,,2013-04-27 08:33:00,
2013-04-27 04:42:00,33.0,25.0,30.39,SE,135,0.0,4.0,71,0.00,,,0.02,,2013-04-27 08:42:00,
2013-04-27 04:52:00,33.0,24.0,30.40,SSE,148,2.0,4.0,70,0.00,,,0.02,,2013-04-27 08:52:00,
2013-04-27 05:01:00,34.0,25.0,30.40,SSE,157,0.0,4.0,70,0.00,,,0.02,,2013-04-27 09:01:00,
2013-04-27 05:11:00,34.0,25.0,30.40,SSE,157,0.0,4.0,70,0.00,,,0.02,,2013-04-27 09:11:00,
2013-04-27 05:21:00,34.0,25.0,30.40,SSE,157,3.0,3.0,69,0.00,,,0.02,,2013-04-27 09:21:00,
2013-04-27 05:33:00,33.0,24.0,30.40,SSE,157,0.0,0.0,69,0.00,,,0.02,,2013-04-27 09:33:00,
2013-04-27 05:42:00,33.0,24.0,30.40,SSE,157,0.0,0.0,69,0.00,,,0.02,,2013-04-27 09:42:00,
2013-04-27 05:53:00,33.0,24.0,30.39,SSE,157,0.0,0.0,69,0.00,,,0.02,,2013-04-27 09:53:00,
2013-04-27 06:03:00,33.0,24.0,30.39,SSE,157,0.0,0.0,68,0.00,,,0.02,,2013-04-27 10:03:00,
2013-04-27 06:12:00,33.0,24.0,30.39,SSE,157,0.0,0.0,68,0.00,,,0.02,,2013-04-27 10:12:00,
2013-04-27 06:22:00,33.0,24.0,30.39,SSE,157,0.0,0.0,68,0.00,,,0.02,,2013-04-27 10:22:00,
2013-04-27 06:32:00,33.0,24.0,30.39,SE,139,3.0,5.0,68,0.00,,,0.02,,2013-04-27 10:32:00,
2013-04-27 06:42:00,33.0,24.0,30.39,SE,139,3.0,5.0,68,0.00,,,0.02,,2013-04-27 10:42:00,
2013-04-27 06:52:00,34.0,25.0,30.39,SSE,157,0.0,6.0,68,0.00,,,0.02,,2013-04-27 10:52:00,
2013-04-27 07:02:00,34.0,25.0,30.39,SE,135,2.0,5.0,68,0.00,,,0.02,,2013-04-27 11:02:00,
2013-04-27 07:12:00,36.0,26.0,30.40,SE,139,2.0,4.0,67,0.00,,,0.02,,2013-04-27 11:12:00,
2013-04-27 07:22:00,36.0,26.0,30.40,SE,139,2.0,4.0,67,0.00,,,0.02,,2013-04-27 11:22:00,
2013-04-27 07:32:00,37.0,26.0,30.40,SE,127,2.0,6.0,65,0.00,,,0.02,,2013-04-27 11:32:00,
2013-04-27 07:42:00,37.0,26.0,30.40,SE,127,2.0,6.0,65,0.00,,,0.02,,2013-04-27 11:42:00,
2013-04-27 07:52:00,39.0,27.0,30.41,SSE,161,3.0,6.0,63,0.00,,,0.02,,2013-04-27 11:52:00,
2013-04-27 08:01:00,41.0,29.0,30.41,SSE,150,3.0,6.0,62,0.00,,,0.02,,2013-04-27 12:01:00,
2013-04-27 08:11:00,41.0,29.0,30.41,SSE,150,3.0,6.0,62,0.00,,,0.02,,2013-04-27 12:11:00,
2013-04-27 08:22:00,43.0,30.0,30.41,SSE,157,2.0,5.0,59,0.00,,,0.02,,2013-04-27 12:22:00,
2013-04-27 08:32:00,44.0,30.0,30.41,SSE,158,2.0,4.0,57,0.00,,,0.02,,2013-04-27 12:32:00,
2013-04-27 08:42:00,44.0,30.0,30.41,SSE,158,2.0,4.0,57,0.00,,,0.02,,2013-04-27 12:42:00,
2013-04-27 08:52:00,46.0,31.0,30.41,SSE,165,3.0,6.0,55,0.00,,,0.02,,2013-04-27 12:52:00,
2013-04-27 09:02:00,48.0,31.0,30.41,SE,135,0.0,4.0,52,0.00,,,0.02,,2013-04-27 13:02:00,
2013-04-27 09:11:00,48.0,31.0,30.41,SE,135,0.0,4.0,52,0.00,,,0.02,,2013-04-27 13:11:00,
2013-04-27 09:21:00,50.0,33.0,30.41,South,180,0.0,4.0,51,0.00,,,0.00,,2013-04-27 13:21:00,
2013-04-27 09:32:00,50.0,32.0,30.41,SSE,157,1.0,4.0,49,0.00,,,0.00,,2013-04-27 13:32:00,
2013-04-27 09:42:00,50.0,32.0,30.41,SSE,157,1.0,4.0,49,0.00,,,0.00,,2013-04-27 13:42:00,
2013-04-27 09:52:00,51.0,32.0,30.40,South,180,0.0,4.0,48,0.00,,,0.00,,2013-04-27 13:52:00,
2013-04-27 10:02:00,53.0,32.0,30.40,South,187,2.0,4.0,45,0.00,,,0.00,,2013-04-27 14:02:00,
2013-04-27 10:11:00,53.0,32.0,30.40,South,187,2.0,4.0,45,0.00,,,0.00,,2013-04-27 14:11:00,
2013-04-27 10:21:00,54.0,31.0,30.40,West,267,2.0,6.0,41,0.00,,,0.00,,2013-04-27 14:21:00,
2013-04-27 10:32:00,55.0,32.0,30.40,WSW,247,2.0,5.0,41,0.00,,,0.00,,2013-04-27 14:32:00,
2013-04-27 10:42:00,55.0,32.0,30.40,WSW,247,2.0,5.0,41,0.00,,,0.00,,2013-04-27 14:42:00,
2013-04-27 10:52:00,56.0,31.0,30.40,WSW,248,2.0,5.0,39,0.00,,,0.00,,2013-04-27 14:52:00,
2013-04-27 11:01:00,57.0,32.0,30.40,WSW,242,3.0,5.0,38,0.00,,,0.00,,2013-04-27 15:01:00,
2013-04-27 11:12:00,57.0,32.0,30.40,WSW,242,3.0,5.0,38,0.00,,,0.00,,2013-04-27 15:12:00,
2013-04-27 11:22:00,58.0,31.0,30.40,NW,315,1.0,5.0,35,0.00,,,0.00,,2013-04-27 15:22:00,
2013-04-27 11:33:00,60.0,31.0,30.40,NW,308,2.0,5.0,33,0.00,,,0.00,,2013-04-27 15:33:00,
2013-04-27 11:42:00,60.0,31.0,30.40,NW,308,2.0,5.0,33,0.00,,,0.00,,2013-04-27 15:42:00,
2013-04-27 11:53:00,61.0,32.0,30.40,SW,231,3.0,6.0,33,0.00,,,0.00,,2013-04-27 15:53:00,
2013-04-27 12:03:00,62.0,30.0,30.39,NE,45,0.0,7.0,30,0.00,,,0.00,,2013-04-27 16:03:00,
2013-04-27 12:13:00,62.0,30.0,30.39,NE,45,0.0,7.0,30,0.00,,,0.00,,2013-04-27 16:13:00,
2013-04-27 12:22:00,61.0,29.0,30.39,NNW,342,2.0,7.0,29,0.00,,,0.00,,2013-04-27 16:22:00,
2013-04-27 12:33:00,60.0,29.0,30.39,NNW,327,3.0,5.0,31,0.00,,,0.00,,2013-04-27 16:33:00,
2013-04-27 12:42:00,60.0,29.0,30.39,NNW,327,3.0,5.0,31,0.00,,,0.00,,2013-04-27 16:42:00,
2013-04-27 12:53:00,62.0,30.0,30.39,West,266,3.0,6.0,30,0.00,,,0.00,,2013-04-27 16:53:00,
2013-04-27 13:02:00,62.0,30.0,30.38,NNW,341,4.0,6.0,30,0.00,,,0.00,,2013-04-27 17:02:00,
2013-04-27 13:12:00,62.0,30.0,30.38,NNW,341,4.0,6.0,30,0.00,,,0.00,,2013-04-27 17:12:00,
2013-04-27 13:22:00,62.0,31.0,30.37,West,275,2.0,6.0,31,0.00,,,0.00,,2013-04-27 17:22:00,
2013-04-27 13:32:00,63.0,31.0,30.37,NW,326,2.0,5.0,30,0.00,,,0.00,,2013-04-27 17:32:00,
2013-04-27 13:42:00,63.0,31.0,30.37,NW,326,2.0,5.0,30,0.00,,,0.00,,2013-04-27 17:42:00,
2013-04-27 13:53:00,65.0,31.0,30.35,SW,227,3.0,8.0,28,0.00,,,0.00,,2013-04-27 17:53:00,
2013-04-27 14:02:00,65.0,31.0,30.35,NW,311,2.0,6.0,28,0.00,,,0.00,,2013-04-27 18:02:00,
2013-04-27 14:12:00,65.0,31.0,30.35,NW,311,2.0,6.0,28,0.00,,,0.00,,2013-04-27 18:12:00,
2013-04-27 14:22:00,65.0,31.0,30.35,East,99,1.0,4.0,28,0.00,,,0.00,,2013-04-27 18:22:00,
2013-04-27 14:32:00,65.0,30.0,30.35,NNW,340,3.0,5.0,27,0.00,,,0.00,,2013-04-27 18:32:00,
2013-04-27 14:42:00,65.0,30.0,30.35,NNW,340,3.0,5.0,27,0.00,,,0.00,,2013-04-27 18:42:00,
2013-04-27 14:52:00,67.0,31.0,30.35,NNW,341,2.0,8.0,26,0.00,,,0.00,,2013-04-27 18:52:00,
2013-04-27 15:02:00,66.0,29.0,30.35,ENE,60,2.0,6.0,25,0.00,,,0.00,,2013-04-27 19:02:00,
2013-04-27 15:11:00,66.0,29.0,30.35,ENE,60,2.0,6.0,25,0.00,,,0.00,,2013-04-27 19:11:00,
2013-04-27 15:21:00,66.0,30.0,30.32,WNW,286,2.0,4.0,26,0.00,,,0.00,,2013-04-27 19:21:00,
2013-04-27 15:32:00,65.0,29.0,30.32,North,0,2.0,4.0,26,0.00,,,0.00,,2013-04-27 19:32:00,
2013-04-27 15:42:00,65.0,29.0,30.32,North,0,2.0,4.0,26,0.00,,,0.00,,2013-04-27 19:42:00,
2013-04-27 15:53:00,66.0,30.0,30.32,WNW,288,2.0,4.0,26,0.00,,,0.00,,2013-04-27 19:53:00,
2013-04-27 16:02:00,66.0,30.0,30.32,NNE,20,1.0,6.0,26,0.00,,,0.00,,2013-04-27 20:02:00,
2013-04-27 16:11:00,66.0,30.0,30.32,NNE,20,1.0,6.0,26,0.00,,,0.00,,2013-04-27 20:11:00,
2013-04-27 16:21:00,65.0,30.0,30.30,NNW,334,3.0,8.0,27,0.00,,,0.00,,2013-04-27 20:21:00,
2013-04-27 16:32:00,67.0,31.0,30.30,NNW,342,3.0,5.0,26,0.00,,,0.00,,2013-04-27 20:32:00,
2013-04-27 16:42:00,67.0,31.0,30.30,NNW,342,3.0,5.0,26,0.00,,,0.00,,2013-04-27 20:42:00,
2013-04-27 16:52:00,69.0,31.0,30.30,NNW,347,2.0,6.0,24,0.00,,,0.00,,2013-04-27 20:52:00,
2013-04-27 17:02:00,70.0,29.0,30.30,NNW,338,3.0,6.0,22,0.00,,,0.00,,2013-04-27 21:02:00,
2013-04-27 17:12:00,70.0,29.0,30.30,NNW,338,3.0,6.0,22,0.00,,,0.00,,2013-04-27 21:12:00,
2013-04-27 17:21:00,68.0,30.0,30.30,NNW,328,2.0,7.0,24,0.00,,,0.00,,2013-04-27 21:21:00,
2013-04-27 17:33:00,68.0,31.0,30.30,NNW,340,4.0,6.0,25,0.00,,,0.00,,2013-04-27 21:33:00,
2013-04-27 17:43:00,68.0,31.0,30.30,NNW,340,4.0,6.0,25,0.00,,,0.00,,2013-04-27 21:43:00,
2013-04-27 17:53:00,66.0,30.0,30.29,West,270,0.0,5.0,26,0.00,,,0.00,,2013-04-27 21:53:00,
2013-04-27 18:03:00,66.0,30.0,30.29,ENE,64,6.0,9.0,26,0.00,,,0.00,,2013-04-27 22:03:00,
2013-04-27 18:13:00,66.0,30.0,30.29,ENE,64,6.0,9.0,26,0.00,,,0.00,,2013-04-27 22:13:00,
2013-04-27 18:22:00,66.0,30.0,30.29,NE,47,4.0,6.0,26,0.00,,,0.00,,2013-04-27 22:22:00,
2013-04-27 18:32:00,65.0,30.0,30.27,East,80,2.0,5.0,27,0.00,,,0.00,,2013-04-27 22:32:00,
2013-04-27 18:42:00,65.0,30.0,30.27,East,80,2.0,5.0,27,0.00,,,0.00,,2013-04-27 22:42:00,
2013-04-27 18:53:00,64.0,29.0,30.27,NE,38,4.0,6.0,27,0.00,,,0.00,,2013-04-27 22:53:00,
2013-04-27 19:02:00,62.0,29.0,30.27,ENE,57,3.0,6.0,29,0.00,,,0.00,,2013-04-27 23:02:00,
2013-04-27 19:12:00,62.0,29.0,30.27,ENE,57,3.0,6.0,29,0.00,,,0.00,,2013-04-27 23:12:00,
2013-04-27 19:22:00,60.0,29.0,30.27,ENE,59,4.0,8.0,31,0.00,,,0.00,,2013-04-27 23:22:00,
2013-04-27 19:32:00,59.0,29.0,30.27,ENE,59,3.0,6.0,32,0.00,,,0.00,,2013-04-27 23:32:00,
2013-04-27 19:42:00,59.0,29.0,30.27,ENE,59,3.0,6.0,32,0.00,,,0.00,,2013-04-27 23:42:00,
2013-04-27 19:52:00,58.0,29.0,30.27,ENE,66,6.0,8.0,33,0.00,,,0.00,,2013-04-27 23:52:00,
2013-04-27 20:01:00,57.0,30.0,30.27,ENE,64,5.0,8.0,35,0.00,,,0.00,,2013-04-28 00:01:00,
2013-04-27 20:12:00,57.0,30.0,30.27,ENE,64,5.0,8.0,35,0.00,,,0.00,,2013-04-28 00:12:00,
2013-04-27 20:21:00,55.0,31.0,30.27,East,86,2.0,4.0,39,0.00,,,0.00,,2013-04-28 00:21:00,
2013-04-27 20:32:00,53.0,30.0,30.27,ENE,67,4.0,5.0,41,0.00,,,0.00,,2013-04-28 00:32:00,
2013-04-27 20:43:00,53.0,30.0,30.27,ENE,67,4.0,5.0,41,0.00,,,0.00,,2013-04-28 00:43:00,
2013-04-27 20:52:00,52.0,31.0,30.27,ENE,67,2.0,5.0,44,0.00,,,0.00,,2013-04-28 00:52:00,
2013-04-27 21:02:00,51.0,30.0,30.27,ENE,72,1.0,4.0,45,0.00,,,0.00,,2013-04-28 01:02:00,
2013-04-27 21:11:00,50.0,29.0,30.28,ESE,112,0.0,5.0,45,0.00,,,0.00,,2013-04-28 01:11:00,
2013-04-27 21:22:00,50.0,29.0,30.28,ESE,112,0.0,5.0,45,0.00,,,0.00,,2013-04-28 01:22:00,
2013-04-27 21:32:00,49.0,29.0,30.28,ESE,112,0.0,4.0,46,0.00,,,0.00,,2013-04-28 01:32:00,
2013-04-27 21:42:00,49.0,29.0,30.28,ESE,112,0.0,4.0,46,0.00,,,0.00,,2013-04-28 01:42:00,
2013-04-27 21:52:00,48.0,28.0,30.27,SE,135,0.0,0.0,46,0.00,,,0.00,,2013-04-28 01:52:00,
2013-04-27 22:02:00,47.0,29.0,30.28,SE,135,0.0,5.0,49,0.00,,,0.00,,2013-04-28 02:02:00,
2013-04-27 22:12:00,47.0,29.0,30.28,SE,135,0.0,5.0,49,0.00,,,0.00,,2013-04-28 02:12:00,
2013-04-27 22:22:00,47.0,30.0,30.27,SE,134,3.0,5.0,51,0.00,,,0.00,,2013-04-28 02:22:00,
2013-04-27 22:32:00,47.0,30.0,30.27,SE,124,2.0,4.0,51,0.00,,,0.00,,2013-04-28 02:32:00,
2013-04-27 22:42:00,47.0,30.0,30.27,SE,124,2.0,4.0,51,0.00,,,0.00,,2013-04-28 02:42:00,
2013-04-27 22:52:00,47.0,30.0,30.27,SE,128,3.0,6.0,52,0.00,,,0.00,,2013-04-28 02:52:00,
2013-04-27 23:01:00,47.0,30.0,30.27,ESE,117,4.0,7.0,52,0.00,,,0.00,,2013-04-28 03:01:00,
2013-04-27 23:11:00,47.0,30.0,30.27,ESE,117,4.0,7.0,52,0.00,,,0.00,,2013-04-28 03:11:00,
2013-04-27 23:21:00,47.0,30.0,30.27,ESE,112,2.0,3.0,51,0.00,,,0.00,,2013-04-28 03:21:00,
2013-04-27 23:33:00,46.0,30.0,30.27,ESE,112,0.0,4.0,53,0.00,,,0.00,,2013-04-28 03:33:00,
2013-04-27 23:43:00,46.0,30.0,30.27,ESE,112,0.0,4.0,53,0.00,,,0.00,,2013-04-28 03:43:00,
2013-04-27 23:53:00,45.0,29.0,30.27,SE,125,2.0,3.0,53,0.00,,,0.00,,2013-04-28 03:53:00,